KI4BIY Weather Reports


Display with metric or nautical units.
time (UTC)temp
F
wind
direction
speed
MPH
gust
MPH
rain 1hr
in
rain 24hr
in
rain mn
in
humidity
%
barometer
mb
20260504191753 81 190 4.0 5.0 0.00 0.00 0.00 43 1010.6
20260504191249 81 260 5.0 6.0 0.00 0.00 0.00 43 1010.4
20260504190744 81 281 4.0 5.0 0.00 0.00 0.00 42 1010.7
20260504190241 82 244 5.0 6.0 0.00 0.00 0.00 41 1010.6
20260504185738 81 255 4.0 5.0 0.00 0.00 0.00 42 1011.0
20260504185235 81 258 5.0 7.0 0.00 0.00 0.00 41 1011.0
20260504184731 81 250 3.0 3.0 0.00 0.00 0.00 42 1010.8
20260504184227 80 255 3.0 3.0 0.00 0.00 0.00 43 1010.7
20260504183723 80 252 4.0 5.0 0.00 0.00 0.00 42 1011.0
20260504183220 80 251 4.0 6.0 0.00 0.00 0.00 42 1011.1
20260504182718 80 264 2.0 2.0 0.00 0.00 0.00 43 1011.2
20260504182215 80 255 4.0 5.0 0.00 0.00 0.00 42 1011.0
20260504181712 80 247 2.0 2.0 0.00 0.00 0.00 43 1010.9
20260504181210 80 250 2.0 3.0 0.00 0.00 0.00 44 1011.3
20260504180709 81 250 4.0 5.0 0.00 0.00 0.00 42 1011.1
20260504180207 80 250 3.0 3.0 0.00 0.00 0.00 45 1011.1
20260504175704 80 253 4.0 6.0 0.00 0.00 0.00 45 1011.3
20260504175200 79 221 3.0 3.0 0.00 0.00 0.00 45 1011.5
20260504174659 78 257 7.0 8.0 0.00 0.00 0.00 44 1011.3
20260504174155 80 259 3.0 3.0 0.00 0.00 0.00 44 1011.6
20260504173652 79 245 5.0 6.0 0.00 0.00 0.00 47 1011.7
20260504173150 79 271 7.0 9.0 0.00 0.00 0.00 46 1011.4
20260504172646 77 240 2.0 2.0 0.00 0.00 0.00 49 1011.8
20260504172143 78 255 5.0 6.0 0.00 0.00 0.00 49 1011.8
20260504171639 77 247 4.0 6.0 0.00 0.00 0.00 50 1011.8
20260504171137 77 236 4.0 5.0 0.00 0.00 0.00 48 1011.9
20260504170633 78 265 4.0 5.0 0.00 0.00 0.00 49 1012.0
20260504170131 77 262 3.0 5.0 0.00 0.00 0.00 49 1012.1
20260504151016 74 249 5.0 6.0 0.00 0.00 0.00 56 1013.0
20260504150513 74 240 2.0 2.0 0.00 0.00 0.00 57 1012.9
20260504140939 70 252 1.0 2.0 0.00 0.00 0.00 64 1013.3
20260504140435 70 229 1.0 1.0 0.00 0.00 0.00 67 1013.3
20260504130400 66 253 2.0 2.0 0.00 0.00 0.00 71 1013.1
20260504110248 60 243 0.0 0.0 0.00 0.00 0.00 76 1012.1
20260504100211 60 244 0.0 0.0 0.00 0.00 0.00 76 1012.4
20260504090133 61 216 1.0 1.0 0.00 0.00 0.00 72 1012.4
20260504081604 61 242 0.0 1.0 0.00 0.00 0.00 70 1012.8
20260504081100 61 237 0.0 0.0 0.00 0.00 0.00 69 1012.9
20260504080557 61 232 1.0 1.0 0.00 0.00 0.00 69 1012.8
20260504050409 60 236 0.0 0.0 0.00 0.00 0.00 65 1014.2
20260504045906 60 230 0.0 1.0 0.00 0.00 0.00 66 1014.3
20260504045401 60 230 0.0 1.0 0.00 0.00 0.00 65 1014.1
20260504044859 60 236 0.0 0.0 0.00 0.00 0.00 65 1014.3
20260504044356 60 236 0.0 0.0 0.00 0.00 0.00 65 1014.3
20260504043854 60 244 0.0 0.0 0.00 0.00 0.00 66 1014.4
20260504043350 60 245 0.0 0.0 0.00 0.00 0.00 66 1014.3
20260504042848 60 230 0.0 0.0 0.00 0.00 0.00 66 1014.2
20260504042343 60 230 0.0 0.0 0.00 0.00 0.00 65 1014.3
20260504041840 60 230 0.0 0.0 0.00 0.00 0.00 65 1014.3
20260504041336 60 230 0.0 1.0 0.00 0.00 0.00 65 1014.3
20260504040832 60 231 0.0 0.0 0.00 0.00 0.00 65 1014.4
20260504040330 60 230 0.0 0.0 0.00 0.00 0.00 65 1014.2
20260504035826 60 242 0.0 0.0 0.00 0.00 0.00 66 1014.4
20260504035324 60 242 0.0 0.0 0.00 0.00 0.00 66 1014.4
20260504034820 60 242 0.0 1.0 0.00 0.00 0.00 67 1014.4
20260504034318 60 234 0.0 1.0 0.00 0.00 0.00 66 1014.5
20260504033815 60 253 0.0 0.0 0.00 0.00 0.00 66 1014.5
20260504033313 60 254 0.0 0.0 0.00 0.00 0.00 66 1014.6
20260504032809 59 231 0.0 0.0 0.00 0.00 0.00 67 1014.6
20260504032306 59 231 0.0 0.0 0.00 0.00 0.00 68 1014.7
20260504031803 59 231 0.0 0.0 0.00 0.00 0.00 68 1014.6
20260504031301 59 253 0.0 0.0 0.00 0.00 0.00 67 1014.5
20260504030756 59 253 0.0 0.0 0.00 0.00 0.00 67 1015.0
20260504030254 59 253 0.0 0.0 0.00 0.00 0.00 68 1014.8
20260504025750 59 253 0.0 0.0 0.00 0.00 0.00 67 1014.8
20260504025247 59 253 0.0 0.0 0.00 0.00 0.00 66 1014.6
20260504024744 59 253 0.0 0.0 0.00 0.00 0.00 67 1014.9
20260504024240 59 253 0.0 0.0 0.00 0.00 0.00 68 1014.6
20260504023738 59 253 0.0 0.0 0.00 0.00 0.00 66 1015.0
20260504023233 59 253 0.0 0.0 0.00 0.00 0.00 67 1014.7
20260504022729 59 253 0.0 0.0 0.00 0.00 0.00 68 1014.7
20260504022226 59 253 0.0 0.0 0.00 0.00 0.00 71 1014.8
20260504021723 59 253 0.0 0.0 0.00 0.00 0.00 69 1014.5
20260504021220 59 253 0.0 0.0 0.00 0.00 0.00 70 1014.4
20260504020717 59 253 0.0 0.0 0.00 0.00 0.00 70 1014.7
20260504020214 60 253 0.0 0.0 0.00 0.00 0.00 68 1014.5
20260504015710 60 253 0.0 0.0 0.00 0.00 0.00 64 1014.5
20260504015207 60 253 0.0 0.0 0.00 0.00 0.00 67 1014.2
20260504014702 60 253 0.0 0.0 0.00 0.00 0.00 62 1014.5
20260504014159 60 253 0.0 0.0 0.00 0.00 0.00 63 1014.4
20260504013657 60 253 0.0 0.0 0.00 0.00 0.00 64 1014.4
20260504013154 61 253 0.0 0.0 0.00 0.00 0.00 64 1014.4
20260504012651 61 253 0.0 0.0 0.00 0.00 0.00 67 1014.3
20260504012148 61 253 0.0 0.0 0.00 0.00 0.00 63 1014.4
20260504011645 62 253 0.0 0.0 0.00 0.00 0.00 63 1014.2
20260504011142 62 254 0.0 0.0 0.00 0.00 0.00 63 1014.4
20260504010638 63 254 0.0 0.0 0.00 0.00 0.00 59 1014.4
20260504010134 63 254 0.0 0.0 0.00 0.00 0.00 56 1014.2
20260504005631 64 254 0.0 0.0 0.00 0.00 0.00 55 1014.3
20260504005127 64 254 0.0 0.0 0.00 0.00 0.00 53 1014.1
20260504004626 65 254 0.0 0.0 0.00 0.00 0.00 52 1014.2
20260504004123 66 254 0.0 0.0 0.00 0.00 0.00 55 1014.5
20260504003619 67 254 0.0 0.0 0.00 0.00 0.00 51 1014.3
20260504003115 67 254 0.0 0.0 0.00 0.00 0.00 48 1014.5
20260504002612 68 254 0.0 0.0 0.00 0.00 0.00 47 1014.3
20260504002110 68 254 0.0 0.0 0.00 0.00 0.00 46 1014.3
20260504001608 68 254 0.0 0.0 0.00 0.00 0.00 46 1014.6
20260504001103 69 254 0.0 0.0 0.00 0.00 0.00 45 1014.3
20260504000601 69 253 0.0 0.0 0.00 0.00 0.00 45 1014.4
20260504000058 70 253 0.0 0.0 0.00 0.00 0.00 45 1014.4
20260503235556 71 254 0.0 0.0 0.00 0.00 0.00 45 1014.3
20260503235053 71 254 0.0 0.0 0.00 0.00 0.00 40 1014.4
20260503234550 71 253 0.0 0.0 0.00 0.00 0.00 40 1014.5
20260503234049 72 250 1.0 1.0 0.00 0.00 0.00 39 1014.3
20260503233545 72 252 2.0 2.0 0.00 0.00 0.00 40 1014.5
20260503233041 72 247 3.0 3.0 0.00 0.00 0.00 39 1014.6
20260503232538 72 246 2.0 3.0 0.00 0.00 0.00 40 1014.8
20260503232035 71 218 1.0 1.0 0.00 0.00 0.00 43 1014.6
20260503231533 71 70 0.0 0.0 0.00 0.00 0.00 40 1014.8
20260503231030 73 212 2.0 2.0 0.00 0.00 0.00 39 1014.9
20260503230526 73 248 1.0 2.0 0.00 0.00 0.00 39 1014.8
20260503230024 73 236 1.0 1.0 0.00 0.00 0.00 39 1014.8
20260503225521 73 234 1.0 1.0 0.00 0.00 0.00 41 1014.8
20260503225015 73 228 1.0 1.0 0.00 0.00 0.00 39 1015.0
20260503224514 73 240 1.0 1.0 0.00 0.00 0.00 40 1014.8
20260503224011 73 156 1.0 2.0 0.00 0.00 0.00 40 1015.0
20260503223509 73 252 1.0 1.0 0.00 0.00 0.00 39 1015.1
20260503223004 73 227 1.0 2.0 0.00 0.00 0.00 39 1015.1
20260503222503 72 239 1.0 1.0 0.00 0.00 0.00 39 1015.3
20260503222000 73 236 1.0 1.0 0.00 0.00 0.00 37 1015.2
20260503221458 73 247 2.0 2.0 0.00 0.00 0.00 37 1015.3
20260503220955 73 254 3.0 3.0 0.00 0.00 0.00 38 1015.2
20260503220452 73 260 2.0 2.0 0.00 0.00 0.00 39 1015.2
20260503215948 73 253 2.0 2.0 0.00 0.00 0.00 38 1015.4
20260503215445 73 262 3.0 3.0 0.00 0.00 0.00 39 1015.4
20260503214943 73 244 1.0 2.0 0.00 0.00 0.00 38 1015.4
20260503214441 73 260 4.0 6.0 0.00 0.00 0.00 38 1015.5
20260503213938 73 244 0.0 0.0 0.00 0.00 0.00 38 1015.6
20260503213436 73 254 1.0 1.0 0.00 0.00 0.00 38 1015.6
20260503212932 73 251 3.0 3.0 0.00 0.00 0.00 36 1015.8
20260503212429 73 258 3.0 3.0 0.00 0.00 0.00 36 1015.9
20260503211927 73 211 0.0 0.0 0.00 0.00 0.00 38 1015.9
20260503211424 72 257 1.0 1.0 0.00 0.00 0.00 39 1016.2
20260503210919 72 256 3.0 5.0 0.00 0.00 0.00 37 1016.3
20260503210416 72 252 3.0 6.0 0.00 0.00 0.00 36 1016.3
20260503205916 72 258 1.0 1.0 0.00 0.00 0.00 40 1016.4
20260503205414 73 252 1.0 2.0 0.00 0.00 0.00 38 1016.6
20260503204910 73 255 2.0 2.0 0.00 0.00 0.00 35 1016.5
20260503204407 73 267 4.0 5.0 0.00 0.00 0.00 37 1016.6
20260503203904 72 243 1.0 1.0 0.00 0.00 0.00 38 1016.6
20260503203401 73 255 4.0 5.0 0.00 0.00 0.00 37 1016.9
20260503202858 73 257 3.0 3.0 0.00 0.00 0.00 36 1016.9
20260503202357 73 244 2.0 2.0 0.00 0.00 0.00 37 1017.2
20260503201855 74 249 2.0 2.0 0.00 0.00 0.00 37 1017.1
20260503201351 73 250 1.0 2.0 0.00 0.00 0.00 38 1017.3
20260503200849 73 13 2.0 2.0 0.00 0.00 0.00 36 1016.9
20260503200344 73 253 3.0 3.0 0.00 0.00 0.00 35 1017.5
20260503195842 73 257 1.0 2.0 0.00 0.00 0.00 35 1017.6
20260503195338 73 236 2.0 2.0 0.00 0.00 0.00 38 1017.7
20260503194836 72 263 1.0 1.0 0.00 0.00 0.00 37 1017.9
20260503194331 72 256 2.0 2.0 0.00 0.00 0.00 36 1017.9
20260503193828 73 248 4.0 5.0 0.00 0.00 0.00 39 1018.1
20260503193324 73 260 3.0 5.0 0.00 0.00 0.00 38 1018.1
20260503192820 73 245 3.0 3.0 0.00 0.00 0.00 38 1018.1
20260503192316 73 252 3.0 3.0 0.00 0.00 0.00 34 1017.9